User: anonymous   Login
Location: Carabito
(9.8355°N, 67.9249°W)
Time: 19:17:18
(UTC+00:00)
Language:

Cosmos 2333 Rocket - Orbit

View from above orbital plane
View from above orbital plane
View from above satellite
View from above satellite

Ground track
Ground track

The orbit data is extracted from the following two-line orbital elements,

1 24298U 96051B   24206.75870826 -.00000145  00000-0 -51743-4 0  9999
2 24298  70.8009 349.4027 0018001 289.2398  70.6774 14.12463761437922
Epoch (UTC): 24 July 2024 18:12:32
Eccentricity: 0.0018001
inclination: 70.8009°
perigee height: 838 km
apogee height: 864 km
right ascension of ascending node: 349.4027°
argument of perigee: 289.2398°
revolutions per day: 14.12463761
mean anomaly at epoch: 70.6774°
orbit number at epoch: 43792

The dashed part of the orbit path shows where the satellite is in the earth's shadow,  

DLR